Yuma MCAS, AZ

7:52 AM MST on April 25, 2017 (GMT -0700)
Yuma Marine Corps Air Station

Weather History for KNYL - April, 2014

Change the Weather History Date:

Friday, April 25, 2014

  Actual Average Record
Temperature  
Mean Temperature 78 °F 75 °F  
Max Temperature 90 °F 89 °F 107 °F (1898)
Min Temperature 65 °F 62 °F 44 °F (1883)
Degree Days  
Heating Degree Days 0 0  
Month to date heating degree days 5 12  
Since 1 July heating degree days 370 685  
Cooling Degree Days 13 11  
Month to date cooling degree days 270 195  
Year to date cooling degree days 569 348  
Growing Degree Days 27 (Base 50)    
Moisture  
Dew Point 36 °F    
Average Humidity 26    
Maximum Humidity 39    
Minimum Humidity 12    
Precipitation  
Precipitation 0.00 in 0.01 in 0.11 in (2011)
Month to date precipitation 0.00 0.14  
Year to date precipitation 0.07 1.23  
Sea Level Pressure  
Sea Level Pressure 29.74 in    
Wind  
Wind Speed 9 mph (WSW)    
Max Wind Speed 23 mph    
Max Gust Speed 29 mph    
Visibility 8 miles    
Events      
T = Trace of Precipitation, MM = Missing Value Source: NWS Daily Summary

Daily Weather History Graph

Daily Weather History Graph

Search for Another Location

Airport or City:

Trip Planner

Search our weather history database for the weather conditions in past years. The results will help you decide how hot, cold, wet, or windy it might be!

Date:

Astronomy

Apr. 25, 2014 Rise Set
Actual Time 5:57 AM MST 7:15 PM MST
Civil Twilight 5:31 AM MST 7:41 PM MST
Nautical Twilight 5:00 AM MST 8:12 PM MST
Astronomical Twilight 4:28 AM MST 8:44 PM MST
Moon 3:34 AM MST 3:54 PM MST
Length of Visible Light 14h 09m
Length of Day
13h 18m
Waning Crescent, 14% of the Moon is Illuminated
Apr 25
Waning Crescent
Apr 28
New
May 6
First Quarter
May 14
Full
May 21
Last Quarter

Hourly Weather History & Observations

Time (MST) Temp. Dew Point Humidity Pressure Visibility Wind Dir Wind Speed Gust Speed Precip Events Conditions
12:57 AM 70.0 °F 37.0 °F 30% 29.79 in 10.0 mi SSE 9.2 mph - N/A   Clear
1:57 AM 71.1 °F 34.0 °F 26% 29.77 in 10.0 mi SE 3.5 mph - N/A   Clear
2:57 AM 70.0 °F 30.0 °F 23% 29.77 in 10.0 mi WSW 5.8 mph - N/A   Clear
3:57 AM 68.0 °F 36.0 °F 31% 29.78 in 10.0 mi Calm Calm - N/A   Clear
4:57 AM 64.9 °F 37.9 °F 37% 29.76 in 10.0 mi WSW 3.5 mph - N/A   Clear
5:57 AM 68.0 °F 30.9 °F 25% 29.78 in 10.0 mi SW 3.5 mph - N/A   Clear
6:57 AM 68.0 °F 34.0 °F 28% 29.78 in 10.0 mi SSE 4.6 mph - N/A   Mostly Cloudy
7:57 AM 72.0 °F 45.0 °F 38% 29.80 in 10.0 mi SSE 11.5 mph - N/A   Mostly Cloudy
8:57 AM 75.9 °F 48.9 °F 38% 29.80 in 10.0 mi SSE 12.7 mph - N/A   Mostly Cloudy
9:57 AM 79.0 °F 51.1 °F 38% 29.80 in 10.0 mi South 6.9 mph - N/A   Mostly Cloudy
10:57 AM 82.0 °F 43.0 °F 25% 29.79 in 10.0 mi Calm Calm - N/A   Mostly Cloudy
11:57 AM 84.0 °F 43.0 °F 24% 29.79 in 10.0 mi West 9.2 mph - N/A   Mostly Cloudy
12:57 PM 84.9 °F 34.0 °F 16% 29.77 in 10.0 mi Variable 6.9 mph - N/A   Mostly Cloudy
1:57 PM 88.0 °F 28.9 °F 12% 29.73 in 10.0 mi WSW 12.7 mph - N/A   Mostly Cloudy
2:57 PM 88.0 °F 28.9 °F 12% 29.71 in 10.0 mi WSW 10.4 mph 18.4 mph N/A   Mostly Cloudy
3:57 PM 89.1 °F 30.0 °F 12% 29.68 in 10.0 mi WSW 6.9 mph - N/A   Mostly Cloudy
4:57 PM 90.0 °F 33.1 °F 13% 29.66 in 10.0 mi SSW 9.2 mph - N/A   Mostly Cloudy
5:57 PM 89.1 °F 37.0 °F 16% 29.65 in 10.0 mi West 16.1 mph - N/A   Mostly Cloudy
6:57 PM 82.0 °F 37.9 °F 21% 29.68 in 5.0 mi WNW 13.8 mph - N/A   Haze
7:38 PM 79.0 °F 37.0 °F 22% 29.69 in 2.8 mi WNW 17.3 mph 26.5 mph N/A   Haze
7:57 PM 78.1 °F 35.1 °F 21% 29.70 in 6.0 mi WNW 15.0 mph - N/A   Haze
8:57 PM 75.0 °F 26.1 °F 16% 29.71 in 6.0 mi WNW 11.5 mph 23.0 mph N/A   Haze
9:57 PM 72.0 °F 35.1 °F 26% 29.73 in 3.0 mi WNW 16.1 mph 24.2 mph N/A   Haze
10:21 PM 71.1 °F 34.0 °F 26% 29.74 in 2.5 mi West 19.6 mph - N/A   Haze
10:57 PM 68.0 °F 37.0 °F 32% 29.73 in 1.8 mi WNW 9.2 mph - N/A   Haze
11:49 PM 68.0 °F 37.9 °F 33% 29.72 in 2.5 mi WNW 10.4 mph - N/A   Haze
11:57 PM 68.0 °F 37.9 °F 33% 29.71 in 3.0 mi WNW 10.4 mph - N/A   Haze